Location: Gazon
(48.1318°N, 1.2708°W)
Time: 22:50:49
(UTC+00:00)

SPOT 5 - Pass Details

Date: 18 September 2020
Orbit: 623 x 815 km, 98.3° (Epoch: 25 October)

Event Time Altitude Azimuth Distance (km) Brightness Sun altitude
Exits shadow 20:40:10 27° 50° (NE) 1,475 4.3 -24.4°
Drops below altitude 10° 20:43:58 10° 5° (N) 2,391 5.9 -24.9°
Sets 20:46:38 0° 355° (N) 3,341 6.9 -25.3°
